Location: Siloam Springs
(36.1881°N, 94.5403°W)
Time: 04:40:47
(UTC-05:00)

CUBESAT XI-V - Pass Details

Date: 05 June 2024
Orbit: 657 x 679 km, 98.2° (Epoch: 16 June)

Event Time Altitude Azimuth Distance (km) Brightness Sun altitude
Exits shadow 02:35:56 20° 96° (E) 1,497 ? -28.3°
Maximum altitude 02:37:20 24° 69° (ENE) 1,370 ? -28.2°
Drops below altitude 10° 02:40:55 10° 16° (NNE) 2,076 ? -27.9°
Sets 02:43:29 0° 3° (N) 2,993 ? -27.7°
